Santorini Island, Greece

4:03 PM EEST on September 21, 2017 (GMT +0300)
Santorini

Weather History for LGSR - December, 2012

Change the Weather History Date:

Thursday, December 6, 2012

  Actual Average Record
Temperature  
Mean Temperature 56 °F -  
Max Temperature 62 °F 59 °F 68 °F (2014)
Min Temperature 51 °F 53 °F 48 °F (2007)
Degree Days  
Heating Degree Days 8    
Growing Degree Days 6 (Base 50)    
Moisture  
Dew Point 45 °F    
Average Humidity 62    
Maximum Humidity 82    
Minimum Humidity 48    
Precipitation  
Precipitation 0.00 in - - ()
Sea Level Pressure  
Sea Level Pressure 29.74 in    
Wind  
Wind Speed 11 mph ()    
Max Wind Speed 21 mph    
Max Gust Speed 32 mph    
Visibility 6.1 miles    
Events Rain , Thunderstorm    
Averages and records for this station are not official NWS values.
T = Trace of Precipitation, MM = Missing Value Source: Averaged Metar Reports

Daily Weather History Graph

Daily Weather History Graph

Search for Another Location

Airport or City:

Trip Planner

Search our weather history database for the weather conditions in past years. The results will help you decide how hot, cold, wet, or windy it might be!

Date:

Astronomy

Dec. 06, 2012 Rise Set
Actual Time 7:15 AM EET 5:02 PM EET
Civil Twilight 6:47 AM EET 5:31 PM EET
Nautical Twilight 6:15 AM EET 6:03 PM EET
Astronomical Twilight 5:43 AM EET 6:34 PM EET
Moon No Moon Rise 12:08 PM EET (12/6)
Length of Visible Light 10h 43m
Length of Day
9h 46m
Waning Gibbous, 52% of the Moon is Illuminated
Dec 6
Waning Gibbous
Dec 6
Last Quarter
Dec 13
New
Dec 20
First Quarter
Dec 28
Full

Hourly Weather History & Observations

Time (EET) Temp. Dew Point Humidity Pressure Visibility Wind Dir Wind Speed Gust Speed Precip Events Conditions
6:50 AM 51.8 °F 44.6 °F 76% 29.74 in 6.2 mi WSW 9.2 mph - N/A Rain , Thunderstorm Thunderstorms and Rain
7:20 AM 53.6 °F 46.4 °F 77% 29.74 in 6.2 mi West 9.2 mph 23.0 mph N/A Rain , Thunderstorm Light Thunderstorms and Rain
7:50 AM 51.8 °F 46.4 °F 82% 29.74 in 6.2 mi SSW 4.6 mph - N/A   Scattered Clouds
8:20 AM 55.4 °F 48.2 °F 77% 29.74 in 6.2 mi South 6.9 mph - N/A   Mostly Cloudy
8:50 AM 59.0 °F 50.0 °F 72% 29.74 in 6.2 mi WSW 11.5 mph - N/A   Mostly Cloudy
9:20 AM 60.8 °F 46.4 °F 59% 29.74 in 6.2 mi SW 13.8 mph 25.3 mph N/A   Mostly Cloudy
9:50 AM 62.6 °F 46.4 °F 55% 29.74 in 6.2 mi SW 16.1 mph 27.6 mph N/A   Mostly Cloudy
10:20 AM 60.8 °F 46.4 °F 59% 29.77 in 6.2 mi SW 20.7 mph 32.2 mph N/A Rain Light Rain
10:50 AM 55.4 °F 50.0 °F 82% 29.77 in 5.0 mi West 18.4 mph 29.9 mph N/A Rain , Thunderstorm Light Thunderstorms and Rain
11:20 AM 55.4 °F 48.2 °F 77% 29.74 in 6.2 mi SW 16.1 mph 27.6 mph N/A   Mostly Cloudy
11:50 AM 59.0 °F 48.2 °F 67% 29.74 in 6.2 mi SW 16.1 mph 27.6 mph N/A   Mostly Cloudy
12:20 PM 60.8 °F 48.2 °F 63% 29.74 in 6.2 mi WSW 18.4 mph - N/A   Mostly Cloudy
12:50 PM 60.8 °F 50.0 °F 68% 29.74 in 6.2 mi WSW 18.4 mph - N/A   Mostly Cloudy
1:20 PM 62.6 °F 46.4 °F 55% 29.71 in 6.2 mi WSW 18.4 mph - N/A   Mostly Cloudy
1:50 PM 62.6 °F 44.6 °F 52% 29.71 in 6.2 mi West 15.0 mph - N/A   Mostly Cloudy
2:20 PM 60.8 °F 42.8 °F 52% 29.71 in 6.2 mi West 11.5 mph 23.0 mph N/A   Scattered Clouds
2:50 PM 60.8 °F 42.8 °F 52% 29.71 in 6.2 mi West 15.0 mph 28.8 mph N/A   Scattered Clouds
3:20 PM 60.8 °F 41.0 °F 48% 29.74 in 6.2 mi West 15.0 mph - N/A   Scattered Clouds
3:50 PM 60.8 °F 41.0 °F 48% 29.74 in 6.2 mi West 13.8 mph - N/A   Partly Cloudy
4:20 PM 60.8 °F 41.0 °F 48% 29.74 in 6.2 mi West 13.8 mph 25.3 mph N/A   Scattered Clouds
4:50 PM 59.0 °F 42.8 °F 55% 29.74 in 6.2 mi West 15.0 mph - N/A   Scattered Clouds
5:20 PM 59.0 °F 41.0 °F 51% 29.74 in 6.2 mi West 15.0 mph - N/A   Scattered Clouds
6:50 PM 59.0 °F 41.0 °F 51% 29.77 in 6.2 mi West 11.5 mph - N/A   Scattered Clouds
7:50 PM 59.0 °F 44.6 °F 59% 29.77 in 6.2 mi West 8.1 mph - N/A   Partly Cloudy